| time (UTC) | temp F | wind direction | speed MPH | gust MPH | rain 1hr in | rain 24hr in | rain mn in | humidity % | barometer mb |
| 20260510044020 | 47 | 0.0 | 0.0 | 0.00 | 0.00 | 0.00 | 91 | 1017.1 | |
| 20260510043024 | 47 | 0.0 | 0.0 | 0.00 | 0.00 | 0.00 | 92 | 1016.9 | |
| 20260510042029 | 46 | 0.0 | 0.0 | 0.00 | 0.00 | 0.00 | 93 | 1016.9 | |
| 20260510041031 | 47 | 0.0 | 0.0 | 0.00 | 0.00 | 0.00 | 92 | 1016.8 | |
| 20260510040019 | 47 | 0.0 | 0.0 | 0.00 | 0.00 | 0.00 | 92 | 1016.9 | |
| 20260510035022 | 47 | 0.0 | 0.0 | 0.00 | 0.00 | 0.00 | 92 | 1016.8 | |
| 20260510034026 | 48 | 0.0 | 0.0 | 0.00 | 0.00 | 0.00 | 91 | 1016.8 | |
| 20260510033029 | 48 | 0.0 | 0.0 | 0.00 | 0.00 | 0.00 | 91 | 1016.7 | |
| 20260510032015 | 46 | 0.0 | 0.0 | 0.00 | 0.00 | 0.00 | 95 | 1016.7 | |
| 20260510031040 | 47 | 0.0 | 0.0 | 0.00 | 0.00 | 0.00 | 95 | 1016.7 | |
| 20260510030023 | 47 | 0.0 | 0.0 | 0.00 | 0.00 | 0.00 | 94 | 1016.7 | |
| 20260510025028 | 47 | 0.0 | 0.0 | 0.00 | 0.00 | 0.00 | 94 | 1016.6 | |
| 20260510024046 | 47 | 0.0 | 0.0 | 0.00 | 0.00 | 0.00 | 94 | 1016.5 | |
| 20260510023018 | 48 | 0.0 | 0.0 | 0.00 | 0.00 | 0.00 | 92 | 1016.4 | |
| 20260510022023 | 49 | 0.0 | 0.0 | 0.00 | 0.00 | 0.00 | 91 | 1016.2 | |
| 20260510021101 | 49 | 0.0 | 0.0 | 0.00 | 0.00 | 0.00 | 90 | 1016.0 | |
| 20260510020018 | 50 | 0.0 | 0.0 | 0.00 | 0.00 | 0.00 | 89 | 1015.7 | |
| 20260510015016 | 51 | 0.0 | 0.0 | 0.00 | 0.00 | 0.00 | 87 | 1015.5 | |
| 20260510014020 | 51 | 211 | 1.0 | 2.0 | 0.00 | 0.00 | 0.00 | 85 | 1015.4 |
| 20260510013024 | 52 | 225 | 0.0 | 2.0 | 0.00 | 0.00 | 0.00 | 83 | 1015.3 |
| 20260510012028 | 53 | 205 | 2.0 | 2.0 | 0.00 | 0.00 | 0.00 | 83 | 1015.3 |
| 20260510011032 | 54 | 211 | 2.0 | 2.0 | 0.00 | 0.00 | 0.00 | 80 | 1015.1 |
| 20260510010018 | 54 | 195 | 1.0 | 2.0 | 0.00 | 0.00 | 0.00 | 79 | 1014.8 |
| 20260510005022 | 55 | 219 | 2.0 | 2.0 | 0.00 | 0.00 | 0.00 | 78 | 1014.7 |
| 20260510004026 | 57 | 203 | 0.0 | 1.0 | 0.00 | 0.00 | 0.00 | 76 | 1014.4 |
| 20260510003030 | 58 | 0.0 | 0.0 | 0.00 | 0.00 | 0.00 | 71 | 1014.3 | |
| 20260510002037 | 59 | 0.0 | 0.0 | 0.00 | 0.00 | 0.00 | 68 | 1014.1 | |
| 20260510001040 | 61 | 0.0 | 0.0 | 0.00 | 0.00 | 0.00 | 64 | 1013.8 | |
| 20260510000024 | 62 | 0.0 | 0.0 | 0.00 | 0.00 | 0.00 | 62 | 1013.7 | |
| 20260509235048 | 65 | 0.0 | 1.0 | 0.00 | 0.00 | 0.00 | 58 | 1013.7 | |
| 20260509234052 | 66 | 153 | 3.0 | 5.0 | 0.00 | 0.00 | 0.00 | 53 | 1013.9 |
| 20260509233018 | 67 | 284 | 3.0 | 8.0 | 0.00 | 0.00 | 0.00 | 51 | 1013.9 |
| 20260509232022 | 68 | 191 | 3.0 | 12.0 | 0.00 | 0.00 | 0.00 | 52 | 1013.8 |
| 20260509231027 | 70 | 12 | 4.0 | 7.0 | 0.00 | 0.00 | 0.00 | 47 | 1013.7 |
| 20260509230051 | 73 | 0.0 | 0.0 | 0.00 | 0.00 | 0.00 | 45 | 1013.7 | |
| 20260509225017 | 70 | 265 | 1.0 | 8.0 | 0.00 | 0.00 | 0.00 | 47 | 1013.7 |
| 20260509224101 | 70 | 237 | 3.0 | 8.0 | 0.00 | 0.00 | 0.00 | 47 | 1013.6 |
| 20260509223025 | 70 | 187 | 7.0 | 9.0 | 0.00 | 0.00 | 0.00 | 45 | 1013.5 |
| 20260509222035 | 71 | 175 | 9.0 | 12.0 | 0.00 | 0.00 | 0.00 | 43 | 1013.5 |
| 20260509221034 | 71 | 212 | 5.0 | 8.0 | 0.00 | 0.00 | 0.00 | 44 | 1013.4 |
| 20260509220019 | 71 | 198 | 7.0 | 12.0 | 0.00 | 0.00 | 0.00 | 44 | 1013.3 |
| 20260509215023 | 71 | 200 | 6.0 | 12.0 | 0.00 | 0.00 | 0.00 | 44 | 1013.3 |
| 20260509214028 | 72 | 212 | 1.0 | 6.0 | 0.00 | 0.00 | 0.00 | 44 | 1013.2 |
| 20260509213024 | 72 | 280 | 1.0 | 5.0 | 0.00 | 0.00 | 0.00 | 44 | 1013.2 |
| 20260509212016 | 72 | 14 | 1.0 | 4.0 | 0.00 | 0.00 | 0.00 | 44 | 1013.0 |
| 20260509211021 | 71 | 183 | 7.0 | 9.0 | 0.00 | 0.00 | 0.00 | 44 | 1012.7 |
| 20260509210019 | 72 | 182 | 6.0 | 9.0 | 0.00 | 0.00 | 0.00 | 44 | 1012.9 |
| 20260509205017 | 72 | 223 | 4.0 | 7.0 | 0.00 | 0.00 | 0.00 | 44 | 1012.7 |
| 20260509204033 | 73 | 240 | 5.0 | 8.0 | 0.00 | 0.00 | 0.00 | 43 | 1012.7 |
| 20260509203019 | 72 | 216 | 7.0 | 12.0 | 0.00 | 0.00 | 0.00 | 44 | 1012.7 |
| 20260509202028 | 72 | 194 | 9.0 | 16.0 | 0.00 | 0.00 | 0.00 | 44 | 1012.7 |
| 20260509201027 | 72 | 220 | 3.0 | 10.0 | 0.00 | 0.00 | 0.00 | 44 | 1012.5 |
| 20260509200032 | 72 | 191 | 3.0 | 10.0 | 0.00 | 0.00 | 0.00 | 45 | 1012.5 |
| 20260509195058 | 72 | 186 | 8.0 | 9.0 | 0.00 | 0.00 | 0.00 | 44 | 1012.7 |
| 20260509194041 | 74 | 201 | 7.0 | 13.0 | 0.00 | 0.00 | 0.00 | 41 | 1012.9 |
| 20260509193025 | 74 | 223 | 12.0 | 21.0 | 0.00 | 0.00 | 0.00 | 39 | 1012.9 |
| 20260509192029 | 73 | 196 | 8.0 | 11.0 | 0.00 | 0.00 | 0.00 | 43 | 1013.0 |
| 20260509191015 | 74 | 179 | 11.0 | 17.0 | 0.00 | 0.00 | 0.00 | 41 | 1013.0 |
| 20260509190019 | 74 | 194 | 6.0 | 10.0 | 0.00 | 0.00 | 0.00 | 44 | 1013.0 |
| 20260509185023 | 72 | 178 | 7.0 | 11.0 | 0.00 | 0.00 | 0.00 | 47 | 1013.1 |
| 20260509184027 | 73 | 214 | 5.0 | 9.0 | 0.00 | 0.00 | 0.00 | 47 | 1013.1 |
| 20260509183031 | 73 | 158 | 10.0 | 15.0 | 0.00 | 0.00 | 0.00 | 47 | 1013.1 |
| 20260509182017 | 71 | 14 | 3.0 | 6.0 | 0.00 | 0.00 | 0.00 | 53 | 1013.3 |
| 20260509181022 | 69 | 58 | 8.0 | 11.0 | 0.00 | 0.00 | 0.00 | 58 | 1013.6 |
| 20260509180026 | 73 | 288 | 5.0 | 10.0 | 0.00 | 0.00 | 0.00 | 50 | 1013.7 |
| 20260509175030 | 72 | 179 | 6.0 | 10.0 | 0.00 | 0.00 | 0.00 | 51 | 1013.9 |
| 20260509174017 | 68 | 204 | 5.0 | 7.0 | 0.00 | 0.00 | 0.00 | 55 | |
| 20260509173040 | 67 | 234 | 2.0 | 6.0 | 0.00 | 0.00 | 0.00 | 57 | 1014.1 |
| 20260509172025 | 66 | 188 | 7.0 | 9.0 | 0.00 | 0.00 | 0.00 | 56 | 1014.1 |
| 20260509171028 | 68 | 199 | 7.0 | 9.0 | 0.00 | 0.00 | 0.00 | 55 | 1013.9 |
| 20260509170052 | 67 | 198 | 8.0 | 11.0 | 0.00 | 0.00 | 0.00 | 55 | 1013.9 |
| 20260509165018 | 67 | 225 | 5.0 | 7.0 | 0.00 | 0.00 | 0.00 | 55 | 1013.9 |
| 20260509164022 | 66 | 194 | 6.0 | 7.0 | 0.00 | 0.00 | 0.00 | 55 | 1013.9 |
| 20260509163046 | 67 | 204 | 7.0 | 10.0 | 0.00 | 0.00 | 0.00 | 55 | 1013.9 |
| 20260509162024 | 69 | 171 | 10.0 | 17.0 | 0.00 | 0.00 | 0.00 | 52 | 1013.8 |
| 20260509161016 | 71 | 206 | 4.0 | 7.0 | 0.00 | 0.00 | 0.00 | 52 | 1014.1 |
| 20260509160020 | 70 | 224 | 7.0 | 10.0 | 0.00 | 0.00 | 0.00 | 53 | 1014.1 |
| 20260509155018 | 69 | 198 | 7.0 | 10.0 | 0.00 | 0.00 | 0.00 | 53 | 1014.1 |
| 20260509154016 | 68 | 187 | 4.0 | 7.0 | 0.00 | 0.00 | 0.00 | 53 | 1014.2 |
| 20260509153032 | 68 | 198 | 5.0 | 6.0 | 0.00 | 0.00 | 0.00 | 54 | 1014.2 |
| 20260509152038 | 67 | 202 | 4.0 | 6.0 | 0.00 | 0.00 | 0.00 | 56 | 1014.1 |
| 20260509151021 | 66 | 196 | 1.0 | 4.0 | 0.00 | 0.00 | 0.00 | 57 | 1014.3 |
| 20260509150025 | 66 | 159 | 7.0 | 10.0 | 0.00 | 0.00 | 0.00 | 58 | 1014.5 |
| 20260509145036 | 66 | 192 | 5.0 | 8.0 | 0.00 | 0.00 | 0.00 | 57 | 1014.1 |
| 20260509144015 | 68 | 184 | 4.0 | 7.0 | 0.00 | 0.00 | 0.00 | 56 | 1014.2 |
| 20260509143019 | 68 | 201 | 6.0 | 8.0 | 0.00 | 0.00 | 0.00 | 57 | 1014.3 |
| 20260509142023 | 66 | 207 | 6.0 | 9.0 | 0.00 | 0.00 | 0.00 | 61 | 1014.3 |
| 20260509141049 | 64 | 184 | 7.0 | 9.0 | 0.00 | 0.00 | 0.00 | 64 | 1014.7 |
| 20260509140032 | 62 | 191 | 8.0 | 13.0 | 0.00 | 0.00 | 0.00 | 67 | 1014.9 |
| 20260509135043 | 60 | 188 | 9.0 | 13.0 | 0.00 | 0.00 | 0.00 | 69 | 1015.3 |
| 20260509134022 | 59 | 187 | 9.0 | 12.0 | 0.00 | 0.00 | 0.00 | 71 | 1015.4 |
| 20260509133026 | 58 | 191 | 9.0 | 11.0 | 0.00 | 0.00 | 0.00 | 71 | 1015.4 |
| 20260509132030 | 58 | 206 | 8.0 | 11.0 | 0.00 | 0.00 | 0.00 | 71 | 1015.5 |
| 20260509131016 | 57 | 177 | 9.0 | 13.0 | 0.00 | 0.00 | 0.00 | 72 | 1015.5 |
| 20260509130020 | 56 | 211 | 7.0 | 9.0 | 0.00 | 0.00 | 0.00 | 73 | 1015.6 |
| 20260509125045 | 55 | 205 | 10.0 | 11.0 | 0.00 | 0.00 | 0.00 | 73 | 1015.4 |
| 20260509124028 | 54 | 192 | 6.0 | 9.0 | 0.00 | 0.00 | 0.00 | 75 | 1015.3 |
| 20260509123032 | 53 | 185 | 5.0 | 6.0 | 0.00 | 0.00 | 0.00 | 76 | 1015.3 |
| 20260509122019 | 52 | 179 | 4.0 | 6.0 | 0.00 | 0.00 | 0.00 | 77 | 1015.4 |
| 20260509121022 | 52 | 171 | 2.0 | 2.0 | 0.00 | 0.00 | 0.00 | 78 | 1015.5 |
| 20260509120026 | 51 | 155 | 2.0 | 4.0 | 0.00 | 0.00 | 0.00 | 79 | 1015.5 |
| 20260509115030 | 50 | 150 | 2.0 | 3.0 | 0.00 | 0.00 | 0.00 | 78 | 1015.6 |
| 20260509114016 | 50 | 152 | 2.0 | 4.0 | 0.00 | 0.00 | 0.00 | 79 | 1015.6 |
| 20260509113020 | 49 | 153 | 4.0 | 7.0 | 0.00 | 0.00 | 0.00 | 80 | 1015.6 |
| 20260509112044 | 49 | 163 | 5.0 | 7.0 | 0.00 | 0.00 | 0.00 | 80 | 1015.6 |
| 20260509110101 | 48 | 148 | 1.0 | 2.0 | 0.00 | 0.00 | 0.00 | 82 | 1015.5 |
| 20260509105018 | 48 | 147 | 2.0 | 3.0 | 0.00 | 0.00 | 0.00 | 84 | 1015.5 |
| 20260509104037 | 47 | 149 | 3.0 | 5.0 | 0.00 | 0.00 | 0.00 | 84 | 1015.6 |
| 20260509103026 | 47 | 160 | 4.0 | 6.0 | 0.00 | 0.00 | 0.00 | 85 | 1015.6 |
| 20260509102030 | 46 | 165 | 1.0 | 2.0 | 0.00 | 0.00 | 0.00 | 86 | 1015.5 |
| 20260509101016 | 45 | 113 | 0.0 | 3.0 | 0.00 | 0.00 | 0.00 | 90 | 1015.5 |
| 20260509100020 | 44 | 0.0 | 0.0 | 0.00 | 0.00 | 0.00 | 90 | 1015.6 | |
| 20260509095024 | 44 | 158 | 0.0 | 2.0 | 0.00 | 0.00 | 0.00 | 93 | 1015.6 |
| 20260509094028 | 44 | 0.0 | 0.0 | 0.00 | 0.00 | 0.00 | 93 | 1015.6 | |
| 20260509093032 | 44 | 0.0 | 0.0 | 0.00 | 0.00 | 0.00 | 91 | 1015.8 | |
| 20260509092018 | 45 | 0.0 | 0.0 | 0.00 | 0.00 | 0.00 | 91 | 1015.8 | |
| 20260509091022 | 45 | 0.0 | 0.0 | 0.00 | 0.00 | 0.00 | 92 | 1015.8 | |
| 20260509090026 | 45 | 0.0 | 0.0 | 0.00 | 0.00 | 0.00 | 92 | 1015.8 | |
| 20260509085031 | 45 | 0.0 | 0.0 | 0.00 | 0.00 | 0.00 | 91 | 1015.9 | |
| 20260509084038 | 45 | 0.0 | 0.0 | 0.00 | 0.00 | 0.00 | 92 | 1015.9 | |
| 20260509083021 | 46 | 0.0 | 0.0 | 0.00 | 0.00 | 0.00 | 90 | 1015.9 | |
| 20260509082025 | 46 | 158 | 0.0 | 2.0 | 0.00 | 0.00 | 0.00 | 89 | 1016.0 |
| 20260509081029 | 45 | 0.0 | 0.0 | 0.00 | 0.00 | 0.00 | 91 | 1015.9 | |
| 20260509080033 | 45 | 0.0 | 0.0 | 0.00 | 0.00 | 0.00 | 92 | 1016.0 | |
| 20260509075039 | 45 | 0.0 | 0.0 | 0.00 | 0.00 | 0.00 | 91 | 1016.2 | |
| 20260509074022 | 44 | 0.0 | 0.0 | 0.00 | 0.00 | 0.00 | 92 | 1016.2 | |
| 20260509073026 | 44 | 0.0 | 0.0 | 0.00 | 0.00 | 0.00 | 92 | 1016.3 | |
| 20260509072030 | 44 | 0.0 | 0.0 | 0.00 | 0.00 | 0.00 | 92 | 1016.4 | |
| 20260509071016 | 43 | 0.0 | 0.0 | 0.00 | 0.00 | 0.00 | 93 | 1016.4 | |
| 20260509070020 | 43 | 0.0 | 0.0 | 0.00 | 0.00 | 0.00 | 94 | 1016.4 | |
| 20260509065024 | 42 | 0.0 | 0.0 | 0.00 | 0.00 | 0.00 | 94 | 1016.6 | |
| 20260509064028 | 42 | 0.0 | 0.0 | 0.00 | 0.00 | 0.00 | 94 | 1016.6 | |
| 20260509063026 | 42 | 210 | 1.0 | 2.0 | 0.00 | 0.00 | 0.00 | 93 | 1016.6 |
| 20260509062018 | 43 | 218 | 2.0 | 2.0 | 0.00 | 0.00 | 0.00 | 92 | 1016.7 |
| 20260509061022 | 43 | 222 | 2.0 | 2.0 | 0.00 | 0.00 | 0.00 | 92 | 1016.8 |
| 20260509060020 | 43 | 228 | 2.0 | 2.0 | 0.00 | 0.00 | 0.00 | 92 | 1016.9 |
| 20260509055038 | 44 | 215 | 2.0 | 2.0 | 0.00 | 0.00 | 0.00 | 91 | 1017.0 |
| 20260509054016 | 44 | 235 | 2.0 | 2.0 | 0.00 | 0.00 | 0.00 | 90 | 1017.0 |
| 20260509053021 | 44 | 228 | 2.0 | 2.0 | 0.00 | 0.00 | 0.00 | 90 | 1017.1 |
| 20260509052025 | 44 | 219 | 2.0 | 2.0 | 0.00 | 0.00 | 0.00 | 90 | 1017.0 |
| 20260509051109 | 45 | 222 | 2.0 | 2.0 | 0.00 | 0.00 | 0.00 | 90 | 1016.9 |
| 20260509050033 | 46 | 210 | 1.0 | 2.0 | 0.00 | 0.00 | 0.00 | 87 | 1016.9 |
| 20260509045019 | 46 | 193 | 2.0 | 2.0 | 0.00 | 0.00 | 0.00 | 86 | 1017.1 |